DMSP 5D-2 F13 DEB, 42320

Orbit data source: Space-Track

DMSP 5D-2 F13 DEB, 42320 is space debris in SSO originally from a launch on Fri, 24 Mar 1995 UTC launched from the Air Force Western Test Range (AFWTR). Debris objects in space refer to the collection of defunct objects orbiting the Earth. Examples of debris include non-operational satellites, rocket bodies, and fragments generated from explosions, collisions, or faulty payload assembly.

Loading next visibility...
Identifier
42320, 1995-015JN
Orbit
SSO
Country
Flag of USUS
Related business
Manufacturer
Unknown
Mission
Spacecraft
Bus & Motor
Unknown
Mass
Unknown
Launch date (UTC)
1995-03-24 (31 years ago)
Launch vehicle
Unknown
Launch site
Air Force Western Test Range (AFWTR)
Object type
Payload
Rocket body
Debris
Shape & HBR
Unknown shape, 0.1 m
Radar Cross Section
Small (<0.1 m²)

Expand to show TLE details & history
Last TLE update: 7 hours ago

TLE from 7 hours ago
0 DMSP 5D-2 F13 DEB
1 42320U 95015JN  26072.93413059  .00005950  00000-0  17461-2 0  9992
2 42320  98.6328 115.0919 0009195 160.5041 199.6503 14.44165572568434
Epoch: 2026-03-13T22:25Z
TLE epoch observation values (Epoch: 2026-03-13T22:25:08.882Z)
Latitude
0.00001°
Longitude
-32.75766°
Altitude
753.888 km
Speed
7.474 km/s
True Right ascension
07h 40m 22s
True Declination
0° 00' 00"
Sunlit
Object was in full shadow at epoch
Visualization orbit readout
Latitude
Unknown
Longitude
Unknown
Altitude
Unknown
Speed
Unknown
Apparent Right ascension
Unknown
Apparent Declination
Unknown
Sunlit
N/A
Visualization observer readout
Local Sidereal Time
09:38:45
Azimuth
Unknown
Elevation
Unknown
Doppler factor
Unknown
Orbital elements
Apogee altitude
748.438 km
Perigee altitude
735.344 km
Semi-major axis
7,120.028 km
Eccentricity
0.00092
Inclination
98.6328°
RAAN
115.0919°
Arg. of periapsis
160.5041°
True anomaly
199.61491°
Mean anomaly
199.6503°
Eccentric anomaly
199.6326°
Mean motion
3.61261 °/min
Orbital period
99.65 mins
BSTAR
0.0017461
Loading maneuver chart data...
Computing Atmospheric mass density...
Loading historical data...
Loading historical data...
Loading historical data...
Loading historical data...
Loading historical data...
Loading historical data...
Loading historical data...

Documentation

Showing up to 5 results
|